Location: Bédeille
(43.0872°N, 1.1041°E)
Time: 06:18:23
(UTC+00:00)

Cosmos 2219 Rocket - Pass Details

Date: 03 February 2023
Orbit: 826 x 848 km, 71.0° (Epoch: 26 March)

Event Time Altitude Azimuth Distance (km) Brightness Sun altitude
Rises 18:03:10 0° 163° (SSE) 3,349 5.3 -10.0°
Reaches altitude 10° 18:06:07 10° 148° (SSE) 2,422 4.4 -10.6°
Maximum altitude 18:10:11 21° 101° (E) 1,769 3.3 -11.3°
Enters shadow 18:13:00 15° 64° (ENE) 2,116 3.7 -11.8°
